Time,TemperatureF,DewpointF,PressureIn,WindDirection,WindDirectionDegrees,WindSpeedMPH,WindSpeedGustMPH,Humidity,HourlyPrecipIn,Conditions,Clouds,dailyrainin,SoftwareType,DateUTC
2014-02-04 00:15:00,29.7,25.2,29.81,NNW,337,0.0,-999.0,83,-99.99,,,0.00,Acu-Link.com,2014-02-04 07:15:00,
2014-02-04 00:30:00,29.1,24.6,29.82,NNW,337,0.0,-999.0,83,-99.99,,,0.00,Acu-Link.com,2014-02-04 07:30:00,
2014-02-04 00:45:00,28.6,24.4,29.82,NNW,337,0.0,-999.0,84,-99.99,,,0.00,Acu-Link.com,2014-02-04 07:45:00,
2014-02-04 01:00:00,28.8,24.6,29.82,NNW,337,0.0,-999.0,84,-99.99,,,0.00,Acu-Link.com,2014-02-04 08:00:00,
2014-02-04 01:15:00,28.8,24.3,29.82,NNW,337,0.0,-999.0,83,-99.99,,,0.00,Acu-Link.com,2014-02-04 08:15:00,
2014-02-04 01:31:00,29.3,24.8,29.83,NNW,337,0.0,-999.0,83,-99.99,,,0.00,Acu-Link.com,2014-02-04 08:31:00,
2014-02-04 01:46:00,29.3,24.5,29.83,NNW,337,0.0,-999.0,82,-99.99,,,0.00,Acu-Link.com,2014-02-04 08:46:00,
2014-02-04 02:01:00,29.7,25.2,29.83,NNW,337,0.0,-999.0,83,-99.99,,,0.00,Acu-Link.com,2014-02-04 09:01:00,
2014-02-04 02:16:00,29.8,25.0,29.83,NNW,337,0.0,-999.0,82,-99.99,,,0.00,Acu-Link.com,2014-02-04 09:16:00,
2014-02-04 02:31:00,29.5,24.7,29.83,NNW,337,1.7,-999.0,82,-99.99,,,0.00,Acu-Link.com,2014-02-04 09:31:00,
2014-02-04 02:47:00,29.3,24.8,29.83,NNW,337,0.0,-999.0,83,-99.99,,,0.00,Acu-Link.com,2014-02-04 09:47:00,
2014-02-04 03:02:00,29.3,24.8,29.83,NNW,337,0.0,-999.0,83,-99.99,,,0.00,Acu-Link.com,2014-02-04 10:02:00,
2014-02-04 03:17:00,29.1,24.6,29.83,NNW,337,0.0,-999.0,83,-99.99,,,0.00,Acu-Link.com,2014-02-04 10:17:00,
2014-02-04 03:32:00,29.1,24.9,29.83,NNW,337,0.0,-999.0,84,-99.99,,,0.00,Acu-Link.com,2014-02-04 10:32:00,
2014-02-04 03:47:00,28.9,24.7,29.83,NNW,337,0.0,-999.0,84,-99.99,,,0.00,Acu-Link.com,2014-02-04 10:47:00,
2014-02-04 04:03:00,28.9,25.0,29.84,NNW,337,0.0,-999.0,85,-99.99,,,0.00,Acu-Link.com,2014-02-04 11:03:00,
2014-02-04 04:18:00,28.6,24.7,29.83,NNW,337,0.0,-999.0,85,-99.99,,,0.00,Acu-Link.com,2014-02-04 11:18:00,
2014-02-04 04:33:00,28.2,24.6,29.84,NNW,337,0.0,-999.0,86,-99.99,,,0.00,Acu-Link.com,2014-02-04 11:33:00,
2014-02-04 04:48:00,28.2,24.8,29.84,NNW,337,0.0,-999.0,87,-99.99,,,0.00,Acu-Link.com,2014-02-04 11:48:00,
2014-02-04 05:04:00,28.2,24.8,29.85,NNW,337,0.0,-999.0,87,-99.99,,,0.00,Acu-Link.com,2014-02-04 12:04:00,
2014-02-04 05:19:00,28.2,24.8,29.85,NNW,337,0.0,-999.0,87,-99.99,,,0.00,Acu-Link.com,2014-02-04 12:19:00,
2014-02-04 05:34:00,28.2,24.8,29.84,NNW,337,0.0,-999.0,87,-99.99,,,0.00,Acu-Link.com,2014-02-04 12:34:00,
2014-02-04 05:49:00,28.2,25.1,29.84,NNW,337,0.0,-999.0,88,-99.99,,,0.00,Acu-Link.com,2014-02-04 12:49:00,
2014-02-04 06:04:00,27.9,24.8,29.85,NNW,337,0.0,-999.0,88,-99.99,,,0.00,Acu-Link.com,2014-02-04 13:04:00,
2014-02-04 06:20:00,27.7,24.9,29.85,NNW,337,0.0,-999.0,89,-99.99,,,0.00,Acu-Link.com,2014-02-04 13:20:00,
2014-02-04 06:35:00,27.5,24.7,29.85,NNW,337,0.0,-999.0,89,-99.99,,,0.00,Acu-Link.com,2014-02-04 13:35:00,
2014-02-04 06:50:00,27.1,24.6,29.86,NNW,337,0.0,-999.0,90,-99.99,,,0.00,Acu-Link.com,2014-02-04 13:50:00,
2014-02-04 07:05:00,27.0,24.7,29.86,NNW,337,0.0,-999.0,91,-99.99,,,0.00,Acu-Link.com,2014-02-04 14:05:00,
2014-02-04 07:20:00,27.1,24.8,29.87,NNW,337,0.0,-999.0,91,-99.99,,,0.00,Acu-Link.com,2014-02-04 14:20:00,
2014-02-04 07:36:00,27.1,24.8,29.87,NNW,337,0.0,-999.0,91,-99.99,,,0.00,Acu-Link.com,2014-02-04 14:36:00,
2014-02-04 07:51:00,27.7,25.4,29.88,NNW,337,0.0,-999.0,91,-99.99,,,0.00,Acu-Link.com,2014-02-04 14:51:00,
2014-02-04 08:06:00,28.2,25.7,29.88,NNW,337,0.0,-999.0,90,-99.99,,,0.00,Acu-Link.com,2014-02-04 15:06:00,
2014-02-04 08:22:00,29.1,26.3,29.88,NNW,337,0.0,-999.0,89,-99.99,,,0.00,Acu-Link.com,2014-02-04 15:22:00,
2014-02-04 08:37:00,29.8,26.4,29.89,NNW,337,0.0,-999.0,87,-99.99,,,0.00,Acu-Link.com,2014-02-04 15:37:00,
2014-02-04 08:52:00,30.4,26.4,29.89,NNW,337,0.0,-999.0,85,-99.99,,,0.00,Acu-Link.com,2014-02-04 15:52:00,
2014-02-04 09:07:00,31.6,26.7,29.89,NNW,337,0.0,-999.0,82,-99.99,,,0.00,Acu-Link.com,2014-02-04 16:07:00,
2014-02-04 09:22:00,32.9,25.9,29.90,NNW,337,0.0,-999.0,75,-99.99,,,0.00,Acu-Link.com,2014-02-04 16:22:00,
2014-02-04 09:38:00,34.0,25.3,29.89,NNW,337,0.0,-999.0,70,-99.99,,,0.00,Acu-Link.com,2014-02-04 16:38:00,
2014-02-04 09:53:00,35.8,24.1,29.91,NNW,337,4.7,-999.0,62,-99.99,,,0.00,Acu-Link.com,2014-02-04 16:53:00,
2014-02-04 10:08:00,36.9,24.3,29.91,NNW,337,2.2,-999.0,60,-99.99,,,0.00,Acu-Link.com,2014-02-04 17:08:00,
2014-02-04 10:23:00,37.4,24.0,29.91,NNW,337,6.8,-999.0,58,-99.99,,,0.00,Acu-Link.com,2014-02-04 17:23:00,
2014-02-04 10:38:00,39.2,24.4,29.91,North,0,4.7,-999.0,55,-99.99,,,0.00,Acu-Link.com,2014-02-04 17:38:00,
2014-02-04 10:54:00,39.6,24.3,29.91,NNW,337,4.2,-999.0,54,-99.99,,,0.00,Acu-Link.com,2014-02-04 17:54:00,
2014-02-04 11:09:00,41.7,24.9,29.91,NE,45,3.2,-999.0,51,-99.99,,,0.00,Acu-Link.com,2014-02-04 18:09:00,
2014-02-04 11:24:00,42.1,25.3,29.91,ESE,112,3.7,-999.0,51,-99.99,,,0.00,Acu-Link.com,2014-02-04 18:24:00,
2014-02-04 11:40:00,41.7,23.5,29.91,North,0,5.3,-999.0,48,-99.99,,,0.00,Acu-Link.com,2014-02-04 18:40:00,
2014-02-04 11:55:00,40.3,23.6,29.90,ENE,67,5.8,-999.0,51,-99.99,,,0.00,Acu-Link.com,2014-02-04 18:55:00,
2014-02-04 12:11:00,40.8,23.1,29.89,ENE,67,6.3,-999.0,49,-99.99,,,0.00,Acu-Link.com,2014-02-04 19:11:00,
2014-02-04 12:26:00,41.2,21.0,29.89,SSW,202,1.7,-999.0,44,-99.99,,,0.00,Acu-Link.com,2014-02-04 19:26:00,
2014-02-04 12:41:00,42.1,19.5,29.87,NNW,337,1.7,-999.0,40,-99.99,,,0.00,Acu-Link.com,2014-02-04 19:41:00,
2014-02-04 12:56:00,41.4,19.5,29.87,NE,45,7.3,-999.0,41,-99.99,,,0.00,Acu-Link.com,2014-02-04 19:56:00,
2014-02-04 13:11:00,42.6,19.4,29.87,NNW,337,4.2,-999.0,39,-99.99,,,0.00,Acu-Link.com,2014-02-04 20:11:00,
2014-02-04 13:27:00,42.6,20.6,29.86,WSW,247,8.3,-999.0,41,-99.99,,,0.00,Acu-Link.com,2014-02-04 20:27:00,
2014-02-04 13:42:00,44.4,19.8,29.86,WSW,247,4.2,-999.0,37,-99.99,,,0.00,Acu-Link.com,2014-02-04 20:42:00,
2014-02-04 13:57:00,46.4,19.6,29.85,SSE,157,5.3,-999.0,34,-99.99,,,0.00,Acu-Link.com,2014-02-04 20:57:00,
2014-02-04 14:12:00,46.4,19.6,29.84,NE,45,4.7,-999.0,34,-99.99,,,0.00,Acu-Link.com,2014-02-04 21:12:00,
2014-02-04 14:27:00,47.3,19.7,29.83,North,0,5.3,-999.0,33,-99.99,,,0.00,Acu-Link.com,2014-02-04 21:27:00,
2014-02-04 14:43:00,46.2,20.1,29.84,North,0,4.7,-999.0,35,-99.99,,,0.00,Acu-Link.com,2014-02-04 21:43:00,
2014-02-04 14:58:00,45.1,19.8,29.85,ENE,67,7.3,-999.0,36,-99.99,,,0.00,Acu-Link.com,2014-02-04 21:58:00,
2014-02-04 15:13:00,45.0,19.7,29.85,NW,315,6.8,-999.0,36,-99.99,,,0.00,Acu-Link.com,2014-02-04 22:13:00,
2014-02-04 15:28:00,43.9,20.0,29.85,North,0,2.2,-999.0,38,-99.99,,,0.00,Acu-Link.com,2014-02-04 22:28:00,
2014-02-04 15:44:00,43.7,19.2,29.85,North,0,6.8,-999.0,37,-99.99,,,0.00,Acu-Link.com,2014-02-04 22:44:00,
2014-02-04 15:59:00,43.3,19.4,29.86,North,0,5.8,-999.0,38,-99.99,,,0.00,Acu-Link.com,2014-02-04 22:59:00,
2014-02-04 16:14:00,43.2,19.3,29.86,WNW,292,6.3,-999.0,38,-99.99,,,0.00,Acu-Link.com,2014-02-04 23:14:00,
2014-02-04 16:29:00,43.5,20.2,29.86,North,0,3.2,-999.0,39,-99.99,,,0.00,Acu-Link.com,2014-02-04 23:29:00,
2014-02-04 16:44:00,42.4,19.2,29.86,North,0,2.7,-999.0,39,-99.99,,,0.00,Acu-Link.com,2014-02-04 23:44:00,
2014-02-04 17:00:00,42.3,19.7,29.87,South,180,3.7,-999.0,40,-99.99,,,0.00,Acu-Link.com,2014-02-05 00:00:00,
2014-02-04 17:15:00,42.1,19.5,29.87,NNW,337,1.7,-999.0,40,-99.99,,,0.00,Acu-Link.com,2014-02-05 00:15:00,
2014-02-04 17:30:00,41.7,20.3,29.88,NNW,337,2.2,-999.0,42,-99.99,,,0.00,Acu-Link.com,2014-02-05 00:30:00,
2014-02-04 17:46:00,41.2,19.9,29.88,North,0,1.1,-999.0,42,-99.99,,,0.00,Acu-Link.com,2014-02-05 00:46:00,
2014-02-04 18:01:00,41.0,20.2,29.88,NNE,22,3.7,-999.0,43,-99.99,,,0.00,Acu-Link.com,2014-02-05 01:01:00,
2014-02-04 18:16:00,40.6,20.4,29.89,North,0,2.7,-999.0,44,-99.99,,,0.00,Acu-Link.com,2014-02-05 01:16:00,
2014-02-04 18:31:00,39.7,20.6,29.90,NNE,22,1.1,-999.0,46,-99.99,,,0.00,Acu-Link.com,2014-02-05 01:31:00,
2014-02-04 18:46:00,39.2,20.2,29.90,SSW,202,1.1,-999.0,46,-99.99,,,0.00,Acu-Link.com,2014-02-05 01:46:00,
2014-02-04 19:02:00,38.7,21.2,29.91,North,0,2.7,-999.0,49,-99.99,,,0.00,Acu-Link.com,2014-02-05 02:02:00,
2014-02-04 19:17:00,37.4,21.9,29.92,North,0,0.0,-999.0,53,-99.99,,,0.00,Acu-Link.com,2014-02-05 02:17:00,
2014-02-04 19:32:00,37.2,23.8,29.92,North,0,4.7,-999.0,58,-99.99,,,0.00,Acu-Link.com,2014-02-05 02:32:00,
2014-02-04 19:47:00,36.9,24.3,29.92,North,0,0.0,-999.0,60,-99.99,,,0.00,Acu-Link.com,2014-02-05 02:47:00,
2014-02-04 20:02:00,36.1,24.4,29.93,North,0,0.0,-999.0,62,-99.99,,,0.00,Acu-Link.com,2014-02-05 03:02:00,
2014-02-04 20:18:00,35.8,25.2,29.94,North,0,0.0,-999.0,65,-99.99,,,0.00,Acu-Link.com,2014-02-05 03:18:00,
2014-02-04 20:33:00,35.4,24.8,29.94,North,0,0.0,-999.0,65,-99.99,,,0.00,Acu-Link.com,2014-02-05 03:33:00,
2014-02-04 20:48:00,35.1,24.9,29.94,North,0,0.0,-999.0,66,-99.99,,,0.00,Acu-Link.com,2014-02-05 03:48:00,
2014-02-04 21:03:00,35.1,25.3,29.95,North,0,0.0,-999.0,67,-99.99,,,0.00,Acu-Link.com,2014-02-05 04:03:00,
2014-02-04 21:18:00,34.9,24.7,29.95,North,0,0.0,-999.0,66,-99.99,,,0.00,Acu-Link.com,2014-02-05 04:18:00,
2014-02-04 21:34:00,34.9,25.1,29.95,North,0,0.0,-999.0,67,-99.99,,,0.00,Acu-Link.com,2014-02-05 04:34:00,
2014-02-04 21:49:00,34.7,25.9,29.96,North,0,0.0,-999.0,70,-99.99,,,0.00,Acu-Link.com,2014-02-05 04:49:00,
2014-02-04 22:04:00,35.2,26.1,29.97,North,0,0.0,-999.0,69,-99.99,,,0.00,Acu-Link.com,2014-02-05 05:04:00,
2014-02-04 22:19:00,35.4,26.3,29.97,North,0,0.0,-999.0,69,-99.99,,,0.00,Acu-Link.com,2014-02-05 05:19:00,
2014-02-04 22:35:00,35.6,26.1,29.97,North,0,0.0,-999.0,68,-99.99,,,0.00,Acu-Link.com,2014-02-05 05:35:00,
2014-02-04 22:50:00,35.6,26.5,29.98,North,0,1.7,-999.0,69,-99.99,,,0.00,Acu-Link.com,2014-02-05 05:50:00,
2014-02-04 23:05:00,36.1,26.6,29.98,North,0,0.0,-999.0,68,-99.99,,,0.00,Acu-Link.com,2014-02-05 06:05:00,
2014-02-04 23:20:00,36.1,26.6,29.98,North,0,0.0,-999.0,68,-99.99,,,0.00,Acu-Link.com,2014-02-05 06:20:00,
2014-02-04 23:35:00,36.3,27.1,29.98,North,0,0.0,-999.0,69,-99.99,,,0.00,Acu-Link.com,2014-02-05 06:35:00,
2014-02-04 23:51:00,36.0,27.2,29.98,North,0,0.0,-999.0,70,-99.99,,,0.00,Acu-Link.com,2014-02-05 06:51:00,